Location: Clyde
(45.1830°S, 169.3170°E)
Time: 16:35:13
(UTC+12:00)

Cosmos 1992 Rocket - Pass Details

Date: 14 May 2021
Orbit: 758 x 766 km, 74.0° (Epoch: 16 June)

Event Time Altitude Azimuth Distance (km) Brightness Sun altitude
Rises 17:59:27 0° 345° (NNW) 3,230 7.8 -6.5°
Reaches altitude 10° 18:01:48 10° 347° (NNW) 2,311 7.0 -6.8°
Maximum altitude 18:07:03 77° 72° (ENE) 801 4.0 -7.7°
Drops below altitude 10° 18:12:22 10° 156° (SSE) 2,338 6.1 -8.6°
Sets 18:14:46 0° 157° (SSE) 3,271 6.9 -9.0°
